Meteo Giornale » Osservazioni meteo Germania » Lechfeld

ore: 19:20 - Osservazioni Meteo Lechfeld
Lat. 48° 11' N Lon. 10° 52' E Alt. 555 metri s.l.m.

poco_nuvoloso

23 °C

Poco Nuvoloso

Temp. 24 Ore

16 °C

24 °C

Ovest

14.8 Km/h

Dew point 7 °C

Umidità 35 %

Visibilità  10 Km

Il sole sorge alle ore 06:32

Il sole tramonta alle ore 20:00

Data e Ora Cielo e Fenomeni T °C DP °C Um. % Pres. hPa Vis. km Vento km/h
Oggi h: 19:20 poco_nuvoloso Poco Nuvoloso 23 7 35 1018 10 O 14.8
Oggi h: 18:20 poco_nuvoloso Poco Nuvoloso 24 6 31 1018 10 O 22.2
Oggi h: 17:20 poco_nuvoloso Poco Nuvoloso 24 8 35 1018 10 O 20.3
Oggi h: 16:25 poco_nuvoloso Poco Nuvoloso 24 9 38 1018 10 O 24
Oggi h: 16:20 poco_nuvoloso Poco Nuvoloso 24 8 35 1018 10 O 25.9
Oggi h: 15:20 poco_nuvoloso Poco Nuvoloso 23 9 40 1018 10 O 24
Oggi h: 14:20 poco_nuvoloso Poco Nuvoloso 23 10 43 1018 10 O 25.9
Oggi h: 13:20 poco_nuvoloso Poco Nuvoloso 22 11 49 1018 10 O 25.9
Oggi h: 12:20 nuvoloso Nuvoloso 21 13 60 1019 10 O 18.5
Oggi h: 11:20 nuvoloso Nuvoloso 20 13 64 1019 10 O 14.8
Oggi h: 10:20 nuvoloso Nuvoloso 20 14 68 1019 10 O 20.3
Oggi h: 09:20 nuvoloso Nuvoloso 19 15 77 1018 10 O/SO 18.5
Oggi h: 08:20 poco_nuvoloso Poco Nuvoloso 18 15 82 1018 10 O/SO 14.8
Oggi h: 07:20 poco_nuvoloso Poco Nuvoloso 17 14 82 1017 10 O/SO 14.8
Oggi h: 06:40 nuvoloso Nuvoloso 16 14 87 1017 10 O/SO 18.5
Oggi h: 06:20 molto_nuvoloso Molto Nuvoloso 16 14 87 1017 10 SO 16.7
Oggi h: 05:20 molto_nuvoloso Molto Nuvoloso 16 14 87 1017 10 O/SO 13
Oggi h: 04:20 nuvoloso_piovaschi Pioggia 17 15 88 1017 8 O/NO 33.3
Oggi h: 04:11 nuvoloso_piovaschi Pioggia 18 15 82 1017 4 O 22.2
Oggi h: 03:20 molto_nuvoloso Molto Nuvoloso 17 15 88 1015 10 S/SO 9.3
Oggi h: 02:20 molto_nuvoloso Molto Nuvoloso 16 14 87 1015 10 N 5.5
Oggi h: 01:20 molto_nuvoloso Molto Nuvoloso 17 14 82 1016 10 N 1.8
Oggi h: 00:20 molto_nuvoloso Molto Nuvoloso 17 14 82 1016 10 S/SO 7.4
Ieri h: 23:20 nuvoloso Nuvoloso 18 14 77 1016 10 N 3.7
Ieri h: 22:20 poco_nuvoloso Poco Nuvoloso 19 14 72 1016 10 N 0
Ieri h: 21:20 nuvoloso Nuvoloso 20 13 64 1016 10 SO 9.3
Ieri h: 20:20 nuvoloso Nuvoloso 22 14 60 1016 10 SO 7.4